| time (UTC) | temp F | wind direction | speed MPH | gust MPH | rain 1hr in | rain 24hr in | rain mn in | humidity % | barometer mb |
| 20260903220032 | 65 | 304 | 7.0 | 16.0 | 0.00 | 0.21 | 0.00 | 63 | 1011.8 |
| 20260903214535 | 68 | 298 | 6.0 | 15.0 | 0.00 | 0.22 | 0.00 | 58 | 1011.5 |
| 20260903213038 | 65 | 306 | 3.0 | 9.0 | 0.00 | 0.23 | 0.00 | 61 | 1011.6 |
| 20260903211529 | 66 | 295 | 2.0 | 4.0 | 0.00 | 0.24 | 0.00 | 61 | 1011.7 |
| 20260903210037 | 67 | 305 | 2.0 | 4.0 | 0.00 | 0.24 | 0.00 | 60 | 1011.7 |
| 20260903204529 | 68 | 312 | 3.0 | 6.0 | 0.00 | 0.25 | 0.00 | 60 | 1011.7 |
| 20260903203036 | 67 | 336 | 2.0 | 8.0 | 0.00 | 0.26 | 0.00 | 63 | 1011.9 |
| 20260903201531 | 65 | 355 | 2.0 | 6.0 | 0.00 | 0.27 | 0.00 | 67 | 1012.0 |
| 20260903200036 | 64 | 321 | 1.0 | 4.0 | 0.00 | 0.27 | 0.00 | 71 | 1012.2 |
| 20260903194532 | 64 | 305 | 2.0 | 5.0 | 0.00 | 0.28 | 0.00 | 76 | 1012.4 |
| 20260903193038 | 63 | 263 | 1.0 | 4.0 | 0.00 | 0.28 | 0.00 | 79 | 1012.7 |
| 20260903191537 | 60 | 98 | 0.0 | 3.0 | 0.00 | 0.30 | 0.00 | 87 | 1013.2 |
| 20260903184531 | 58 | 15 | 0.0 | 4.0 | 0.00 | 0.30 | 0.00 | 90 | 1013.3 |
| 20260903183038 | 57 | 27 | 0.0 | 4.0 | 0.00 | 0.30 | 0.00 | 92 | 1013.4 |
| 20260903180033 | 57 | 318 | 1.0 | 6.0 | 0.00 | 0.30 | 0.00 | 96 | 1013.4 |
| 20260903174605 | 55 | 337 | 2.0 | 6.0 | 0.00 | 0.30 | 0.00 | 97 | 1013.5 |
| 20260903173027 | 54 | 343 | 1.0 | 5.0 | 0.00 | 0.30 | 0.00 | 98 | 1013.7 |
| 20260903171530 | 52 | 104 | 0.0 | 4.0 | 0.00 | 0.30 | 0.00 | 98 | 1013.7 |
| 20260903170031 | 51 | 225 | 0.0 | 3.0 | 0.00 | 0.30 | 0.00 | 98 | 1013.8 |
| 20260903164609 | 51 | 174 | 1.0 | 5.0 | 0.00 | 0.30 | 0.00 | 98 | 1013.9 |
| 20260903163031 | 51 | 120 | 0.0 | 3.0 | 0.00 | 0.30 | 0.00 | 98 | 1013.8 |
| 20260903161537 | 50 | 310 | 0.0 | 3.0 | 0.00 | 0.30 | 0.00 | 98 | 1013.8 |
| 20260903160039 | 50 | 293 | 0.0 | 5.0 | 0.00 | 0.30 | 0.00 | 98 | 1013.9 |
| 20260903154530 | 50 | 207 | 1.0 | 4.0 | 0.00 | 0.30 | 0.00 | 98 | 1013.8 |
| 20260903153107 | 49 | 143 | 0.0 | 3.0 | 0.00 | 0.30 | 0.00 | 98 | 1013.9 |
| 20260903151545 | 49 | 59 | 0.0 | 2.0 | 0.00 | 0.30 | 0.00 | 98 | 1014.0 |
| 20260903144536 | 48 | 262 | 1.0 | 5.0 | 0.00 | 0.30 | 0.00 | 98 | 1013.7 |
| 20260903143031 | 47 | 202 | 0.0 | 3.0 | 0.00 | 0.30 | 0.00 | 98 | 1013.7 |
| 20260903141528 | 47 | 200 | 0.0 | 2.0 | 0.00 | 0.30 | 0.00 | 98 | 1013.6 |
| 20260903140109 | 47 | 97 | 0.0 | 3.0 | 0.00 | 0.30 | 0.00 | 98 | 1013.5 |
| 20260903134531 | 46 | 238 | 0.0 | 3.0 | 0.00 | 0.30 | 0.00 | 98 | 1013.3 |
| 20260903133144 | 46 | 184 | 0.0 | 1.0 | 0.00 | 0.30 | 0.00 | 97 | 1013.3 |
| 20260903131530 | 46 | 135 | 0.0 | 0.0 | 0.00 | 0.30 | 0.00 | 97 | 1013.1 |
| 20260903130106 | 46 | 208 | 0.0 | 3.0 | 0.00 | 0.30 | 0.00 | 97 | 1013.0 |
| 20260903124529 | 47 | 231 | 0.0 | 0.0 | 0.00 | 0.30 | 0.00 | 97 | 1013.1 |
| 20260903123028 | 47 | 224 | 0.0 | 3.0 | 0.00 | 0.30 | 0.00 | 97 | 1013.1 |
| 20260903121528 | 47 | 225 | 0.0 | 3.0 | 0.00 | 0.30 | 0.00 | 97 | 1013.1 |
| 20260903120030 | 47 | 196 | 0.0 | 3.0 | 0.00 | 0.30 | 0.00 | 97 | 1013.1 |
| 20260903114531 | 47 | 306 | 0.0 | 2.0 | 0.00 | 0.30 | 0.00 | 97 | 1013.1 |
| 20260903111529 | 48 | 165 | 1.0 | 3.0 | 0.00 | 0.30 | 0.00 | 97 | 1012.9 |
| 20260903110032 | 48 | 255 | 0.0 | 4.0 | 0.00 | 0.30 | 0.00 | 97 | 1012.9 |
| 20260903104531 | 48 | 270 | 0.0 | 0.0 | 0.00 | 0.30 | 0.00 | 97 | 1012.8 |
| 20260903103037 | 49 | 270 | 0.0 | 0.0 | 0.00 | 0.30 | 0.00 | 97 | 1012.6 |
| 20260903101605 | 50 | 226 | 0.0 | 2.0 | 0.00 | 0.30 | 0.00 | 97 | 1012.5 |
| 20260903100108 | 51 | 163 | 0.0 | 0.0 | 0.00 | 0.30 | 0.00 | 97 | 1012.5 |
| 20260903094532 | 51 | 180 | 0.0 | 2.0 | 0.00 | 0.30 | 0.00 | 97 | 1012.6 |
| 20260903093030 | 50 | 161 | 1.0 | 3.0 | 0.00 | 0.30 | 0.00 | 97 | 1012.6 |
| 20260903091529 | 50 | 135 | 0.0 | 0.0 | 0.00 | 0.30 | 0.00 | 97 | 1012.5 |
| 20260903090031 | 50 | 135 | 0.0 | 0.0 | 0.00 | 0.30 | 0.00 | 97 | 1012.5 |
| 20260903084608 | 50 | 135 | 0.0 | 0.0 | 0.00 | 0.30 | 0.00 | 97 | 1012.6 |
| 20260903083045 | 50 | 135 | 0.0 | 1.0 | 0.00 | 0.30 | 0.00 | 97 | 1012.5 |
| 20260903080030 | 50 | 79 | 2.0 | 4.0 | 0.00 | 0.30 | 0.00 | 97 | 1012.4 |
| 20260903074533 | 50 | 168 | 1.0 | 4.0 | 0.00 | 0.30 | 0.00 | 96 | 1012.2 |
| 20260903070030 | 52 | 216 | 1.0 | 5.0 | 0.00 | 0.30 | 0.00 | 96 | 1012.0 |
| 20260903064529 | 52 | 56 | 1.0 | 4.0 | 0.00 | 0.30 | 0.30 | 96 | 1012.0 |
| 20260903063030 | 52 | 84 | 0.0 | 3.0 | 0.00 | 0.30 | 0.30 | 96 | 1012.0 |
| 20260903061547 | 52 | 122 | 0.0 | 2.0 | 0.00 | 0.30 | 0.30 | 96 | 1012.0 |
| 20260903060035 | 52 | 146 | 1.0 | 4.0 | 0.00 | 0.30 | 0.30 | 96 | 1012.0 |
| 20260903054532 | 53 | 233 | 1.0 | 4.0 | 0.01 | 0.30 | 0.30 | 96 | 1011.8 |
| 20260903053034 | 54 | 273 | 0.0 | 1.0 | 0.01 | 0.30 | 0.30 | 96 | 1011.8 |
| 20260903051615 | 54 | 167 | 1.0 | 4.0 | 0.01 | 0.30 | 0.30 | 96 | 1011.8 |
| 20260903050031 | 54 | 135 | 2.0 | 4.0 | 0.01 | 0.30 | 0.28 | 95 | 1011.7 |
| 20260903043030 | 55 | 90 | 0.0 | 0.0 | 0.00 | 0.28 | 0.28 | 95 | 1011.4 |
| 20260903040033 | 56 | 128 | 0.0 | 4.0 | 0.00 | 0.28 | 0.28 | 95 | 1010.7 |
| 20260903033037 | 56 | 67 | 0.0 | 0.0 | 0.00 | 0.28 | 0.28 | 95 | 1010.6 |
| 20260903031536 | 57 | 67 | 0.0 | 0.0 | 0.03 | 0.28 | 0.28 | 94 | 1010.5 |
| 20260903030031 | 57 | 67 | 0.0 | 0.0 | 0.11 | 0.28 | 0.28 | 94 | 1010.3 |
| 20260903024537 | 58 | 335 | 0.0 | 0.0 | 0.11 | 0.28 | 0.26 | 94 | 1010.2 |
| 20260903021535 | 58 | 302 | 0.0 | 4.0 | 0.08 | 0.26 | 0.18 | 94 | 1010.2 |
| 20260903020043 | 58 | 329 | 0.0 | 3.0 | 0.00 | 0.18 | 0.18 | 93 | 1009.9 |
| 20260903014531 | 58 | 360 | 0.0 | 0.0 | 0.02 | 0.18 | 0.18 | 93 | 1009.7 |
| 20260903011532 | 58 | 360 | 0.0 | 0.0 | 0.04 | 0.18 | 0.18 | 93 | 1009.7 |
| 20260903010031 | 58 | 360 | 0.0 | 0.0 | 0.06 | 0.18 | 0.16 | 93 | 1009.8 |
| 20260903004531 | 58 | 360 | 0.0 | 2.0 | 0.04 | 0.16 | 0.14 | 92 | 1009.8 |
| 20260903003032 | 59 | 360 | 0.0 | 0.0 | 0.02 | 0.14 | 0.14 | 92 | 1009.9 |
| 20260903001538 | 59 | 360 | 0.0 | 3.0 | 0.03 | 0.14 | 0.12 | 92 | 1009.8 |
| 20260903000030 | 59 | 360 | 0.0 | 2.0 | 0.02 | 0.12 | 0.12 | 92 | 1009.7 |
| 20260902234530 | 59 | 341 | 0.0 | 4.0 | 0.02 | 0.12 | 0.12 | 91 | 1009.7 |
| 20260902233106 | 60 | 336 | 0.0 | 4.0 | 0.02 | 0.12 | 0.11 | 91 | 1009.8 |
| 20260902231530 | 60 | 333 | 2.0 | 3.0 | 0.01 | 0.11 | 0.10 | 91 | 1009.9 |
| 20260902230146 | 59 | 323 | 1.0 | 3.0 | 0.01 | 0.10 | 0.10 | 92 | 1010.0 |
| 20260902224532 | 59 | 322 | 1.0 | 5.0 | 0.02 | 0.10 | 0.10 | 93 | 1009.8 |
| 20260902223030 | 59 | 316 | 2.0 | 5.0 | 0.03 | 0.10 | 0.10 | 92 | 1009.9 |
| 20260902221645 | 59 | 313 | 2.0 | 5.0 | 0.04 | 0.10 | 0.09 | 91 | 1009.8 |